Flag for United Kingdom Weather past 2 weeks in Leeds, England, United Kingdom

Now
64 °F

Scattered clouds.


Feels Like: 64 °F
Forecast: 52 / 69 °F
Wind: 17 mph from West

Location: Leeds And Bradford

Current Time: Jul 29, 2014 at 11:43:02 AM

Latest Report: Jul 29, 2014 at 11:20 AM


Visibility: N/A

Pressure: 30.01 "Hg

Humidity: 73%

Dew point: 55 °F

Location of LeedsLocation

Historic Weather in Leeds — Graph

°F

Leeds temperature yesterday

Maximum temperature yesterday: 72 °F (at 3:20 PM)
Minimum temperature yesterday: 52 °F (at 5:20 AM)
Average temperature yesterday: 62 °F

Past Weeks' High & Low Weather Summary

 TemperatureHumidityPressure
High79 °F (Jul 25, 2:50 PM)100% (Jul 14, 11:50 PM)30.30 "Hg (Jul 14, 11:50 PM)
Low52 °F (Jul 15, 4:20 AM)46% (Jul 28, 2:50 PM)29.74 "Hg (Jul 19, 5:50 PM)
Average63 °F82%30.04 "Hg
* Reported Jul 14 10:20 AM — Jul 29 10:50 AM, Leeds, Weather by CustomWeather, © 2014

Note: Actual official high and low records may vary slightly from our data, if they occured in-between our weather recording intervals... More about our weather records

Advertising

Leeds weather history for previous 24 hours

 ConditionsComfort  
Time TempWeatherWind HumidityBarometerVisibility
10:50 AM
Jul 29
63 °FScattered clouds.16 mph83%30.01 "HgN/A
10:20 AM63 °FScattered clouds.17 mph77%30.01 "HgN/A
9:50 AM64 °FScattered clouds.17 mph73%30.01 "HgN/A
9:20 AM64 °FScattered clouds.14 mph73%30.01 "HgN/A
8:50 AM61 °FPassing clouds.10 mph83%30.01 "HgN/A
8:20 AM59 °FPassing clouds.9 mph88%30.04 "HgN/A
7:50 AM57 °FPassing clouds.12 mph94%30.04 "HgN/A
7:20 AM57 °FPassing clouds.10 mph94%30.04 "HgN/A
6:50 AM57 °FPassing clouds.12 mph94%30.04 "HgN/A
6:20 AM55 °FScattered clouds.12 mph94%30.01 "HgN/A
5:50 AM55 °FPassing clouds.12 mph94%30.04 "HgN/A
5:20 AM55 °FClear.14 mph94%30.01 "Hg10 mi
4:50 AM55 °FClear.12 mph94%30.01 "Hg10 mi
4:20 AM54 °FClear.12 mph100%30.04 "Hg10 mi
3:50 AM54 °FClear.8 mph94%30.04 "Hg10 mi
3:20 AM54 °FClear.5 mph94%30.04 "Hg10 mi
2:50 AM55 °FClear.5 mph94%30.04 "Hg10 mi
2:20 AM55 °FClear.3 mph88%30.07 "Hg10 mi
1:50 AM55 °FClear.3 mph88%30.07 "Hg10 mi
1:20 AM57 °FClear.2 mph88%30.07 "Hg10 mi
12:50 AM57 °FClear.5 mph88%30.07 "Hg10 mi
12:20 AM57 °FClear.3 mph88%30.07 "Hg10 mi
11:50 PM
Jul 28
57 °FPassing clouds.5 mph88%30.07 "HgN/A
11:20 PM59 °FPassing clouds.6 mph82%30.07 "HgN/A
10:50 PM57 °FPassing clouds.2 mph88%30.07 "HgN/A
9:50 PM61 °FPassing clouds.3 mph77%30.07 "HgN/A
9:20 PM63 °FPassing clouds.2 mph73%30.07 "HgN/A
8:50 PM64 °FPassing clouds.3 mph68%30.07 "HgN/A
8:20 PM64 °FPassing clouds.5 mph73%30.07 "HgN/A
7:50 PM66 °FPassing clouds.5 mph60%30.04 "HgN/A
7:20 PM68 °FPassing clouds.3 mph56%30.04 "HgN/A
6:50 PM68 °FPassing clouds.6 mph53%30.04 "HgN/A
6:20 PM70 °FPassing clouds.8 mph53%30.04 "HgN/A
5:50 PM70 °FPassing clouds.9 mph50%30.04 "HgN/A
5:20 PM72 °FPassing clouds.3 mph47%30.04 "HgN/A
4:50 PM70 °FScattered clouds.8 mph50%30.04 "HgN/A
4:20 PM72 °FScattered clouds.5 mph47%30.04 "HgN/A
3:50 PM70 °FPassing clouds.5 mph50%30.04 "HgN/A
3:20 PM72 °FPassing clouds.3 mph47%30.04 "HgN/A
2:50 PM70 °FPassing clouds.5 mph46%30.04 "HgN/A
2:20 PM70 °FPassing clouds.6 mph53%30.04 "HgN/A
1:50 PM70 °FScattered clouds.3 mph100%30.04 "HgN/A
1:20 PM66 °FScattered clouds.2 mph100%30.04 "HgN/A
12:50 PM66 °FScattered clouds.3 mph94%30.04 "HgN/A
12:20 PM66 °FScattered clouds.5 mph88%30.04 "HgN/A
11:50 AM64 °FPassing clouds.7 mph78%30.04 "HgN/A
11:20 AM64 °FPassing clouds.7 mph68%30.04 "HgN/A
Weather by CustomWeather, © 2014

See weather overviewHow to use our weather pages